Location: Charlus
(45.3167°N, 2.4000°E)
Time: 11:01:21
(UTC+00:00)

Daily predictions for brighter satellites

Satellite Brightness Start Highest point End
(mag) Time Altitude Azimuth Time Altitude Azimuth Time Altitude Azimuth
USA 229 DEB 4.0 16:28:26 10° NW 16:35:43 66° NE 16:43:27 10° SE
USA 229 4.0 16:28:32 10° NW 16:35:49 65° NE 16:43:32 10° SE
Cosmos 1500 Rocket 3.7 16:36:10 10° N 16:40:32 52° ENE 16:44:48 10° SSE
Spot 1 4.4 16:36:05 10° NNE 16:40:49 71° ESE 16:45:46 10° S
Nadezhda 4 Rocket 4.0 16:36:04 10° N 16:42:26 75° E 16:48:45 10° SSE
SL-24 R/B - RUBIN 2 4.5 16:38:30 10° NNW 16:42:29 28° NE 16:46:15 10° E
ATLAS 2AS CENTAUR R/B 4.5 16:36:41 10° WNW 16:42:34 23° NNW 16:48:14 10° NNE
SeaSat 1 4.3 16:39:12 10° N 16:43:10 25° NW 16:47:07 10° WSW
Cosmos 990 Rocket 3.9 16:39:15 10° NNW 16:44:28 74° ENE 16:49:37 10° SSE
FengYun 1-2 T 4.3 16:40:12 10° SSE 16:45:42 62° ENE 16:51:09 10° N
Cosmos 1697 Rocket 2.8 16:41:11 10° NNW 16:46:43 56° ENE 16:52:13 10° SE
NOAA 6 4.2 16:44:09 10° SE 16:49:06 52° ENE 16:54:05 10° N
Sich 1 3.8 16:46:22 10° NNE 16:50:11 30° ENE 16:54:00 10° SE
Cosmos 1980 Rocket 2.8 16:45:45 10° NNW 16:50:54 34° NE 16:55:59 10° ESE
Cosmos 2221 3.0 16:46:46 10° SSW 16:51:00 64° W 16:55:18 10° N
Cosmos 1805 Rocket 3.9 16:48:08 10° N 16:52:14 40° ENE 16:56:19 10° SSE
Cosmos 2369 4.1 16:47:27 10° NNW 16:52:55 43° ENE 16:58:20 10° SE
USA 234 3.3 16:49:13 10° ESE 16:55:43 69° NNE 17:02:13 10° NW
Cosmos 1842 Rocket 4.0 16:51:26 10° SSW 16:55:52 67° W 17:00:21 10° N
CZ-4C R/B 3.4 16:50:26 10° NNW 16:56:58 40° NE 17:04:36 10° ESE
Cosmos 1092 Rocket 4.1 16:52:02 10° N 16:58:19 59° ENE 17:04:33 10° SSE
Cosmos 2084 3.6 16:54:33 10° NW 16:58:53 82° SW 17:03:22 10° SE
NOSS 3-1 (A) 4.2 16:51:49 10° NW 16:59:23 89° ENE 17:08:14 10° SE
Cosmos 1812 4.1 16:57:09 10° SE 16:59:56 19° E 17:02:42 10° NE
USA 306 4.3 16:56:50 10° WNW 17:00:23 25° N 17:03:35 12° NE
SL-16 R/B 3.7 16:58:29 10° N 17:01:47 15° NE 17:04:15 12° ENE
ISS -3.1 16:58:57 10° NW 17:02:11 40° NNE 17:04:59 13° E
Meteor 1-25 Rocket 4.2 16:58:25 10° N 17:04:00 72° ENE 17:09:36 10° SSE
SMAP 3.0 17:00:27 10° SSE 17:05:04 71° ENE 17:09:43 10° N
NOSS 2-2 (E) 4.5 17:00:03 10° NNW 17:05:13 59° NE 17:12:30 10° SE
Cosmos 2082 Rocket 2.8 17:00:16 10° S 17:05:27 38° ESE 17:10:38 10° NE
Meteor PRIRODA 4.3 17:02:13 10° S 17:05:48 58° W 17:09:23 10° NNW
Cosmos 1939 Rocket 2.8 17:02:11 10° SSE 17:06:19 80° ENE 17:10:24 10° N
CORIOLIS 4.1 17:02:41 10° SSE 17:08:01 69° ENE 17:13:26 10° N
CZ-4B DEB 4.2 17:08:57 10° SSE 17:14:25 67° ENE 17:19:52 10° N
Cosmos 2278 4.2 17:11:37 10° NNW 17:16:57 38° NE 17:22:14 10° ESE
Cosmos 1602 3.6 17:13:37 10° N 17:17:29 77° E 17:21:21 10° SSE
AQUARIUS 4.1 17:14:30 10° SSE 17:18:59 83° ENE 17:23:30 10° NNW
USA 307 4.3 17:15:41 10° WNW 17:19:16 25° N 17:21:38 16° NE
Cosmos 1627 Rocket 4.4 17:13:37 10° N 17:19:48 72° E 17:25:54 10° SSE
Cosmos 540 Rocket 3.4 17:15:19 10° SSW 17:20:24 75° ESE 17:25:31 10° NNE
Cosmos 2034 Rocket 4.5 17:15:40 10° SSW 17:21:44 62° WNW 17:27:51 10° N
ARGOS 3.6 17:19:45 10° SE 17:24:40 37° ENE 17:29:35 10° N
Cosmos 2279 Rocket 4.3 17:19:38 10° SSE 17:25:27 44° E 17:31:18 10° NNE
COSMOS 2406 3.2 17:20:18 10° SSW 17:26:04 88° ESE 17:31:50 10° NNE
COSMO-SKYMED 1 3.3 17:23:24 14° NE 17:26:42 33° E 17:30:37 10° SSE
Cosmos 1833 Rocket 2.9 17:21:48 10° SSW 17:27:23 72° WNW 17:33:03 10° NNE
Cosmos 1782 2.7 17:24:53 10° S 17:28:51 73° E 17:32:51 10° NNE
Cosmos 1814 Rocket 4.4 17:25:05 10° S 17:29:59 43° ESE 17:33:44 16° NE
Meteor 2-21 4.3 17:24:41 10° N 17:30:48 77° E 17:36:51 10° SSE
ATLAS 5 CENTAUR R/B 3.1 17:24:42 10° NW 17:31:41 29° NNE 17:33:09 22° NE
Cosmos 921 Rocket 4.5 17:30:28 10° SE 17:32:43 18° ESE 17:32:43 18° ESE
Cosmos 1633 Rocket 3.4 17:31:17 10° N 17:35:26 41° ENE 17:39:34 10° SSE
Cosmos 1818 4.2 17:31:06 10° NNW 17:36:07 35° NE 17:38:50 22° E
YAOGAN 1 4.5 17:39:35 14° NNE 17:39:35 14° NNE 17:40:28 10° NNE
Cosmos 1898 Rocket 4.4 17:34:28 10° NNW 17:39:34 51° WSW 17:44:34 10° S
CZ-2D R/B 3.1 17:35:57 10° SSE 17:39:47 89° E 17:43:38 10° NNW
GEOS 3 Rocket 4.4 17:37:59 23° ENE 17:40:05 31° NE 17:44:36 10° NNW
USA 308 4.2 17:38:23 10° NW 17:41:58 25° N 17:43:13 22° NNE
Cosmos 1634 Rocket 4.0 17:36:01 10° S 17:42:20 89° W 17:48:43 10° N
SJ-11-01 4.5 17:37:59 10° SE 17:42:33 49° ENE 17:47:08 10° N
COSMOS 2455 2.8 17:37:19 10° SSW 17:43:19 85° ESE 17:48:14 16° NNE
PAYLOAD B 4.2 17:38:37 10° SSE 17:44:13 89° WSW 17:49:52 10° NNW
CZ-2C R/B 2.6 17:41:05 10° NNE 17:46:12 55° E 17:51:15 10° S
CZ-4B R/B 3.1 17:41:24 10° SSE 17:46:46 68° ENE 17:52:05 10° N
Cosmos 1500 3.3 17:43:15 10° NNW 17:47:00 73° W 17:50:42 10° S
Cosmos 1151 Rocket 2.9 17:43:36 10° S 17:47:52 63° E 17:51:27 15° NNE
Cosmos 2026 Rocket 4.2 17:42:28 10° NNW 17:48:35 73° W 17:54:36 10° S
Lacrosse 5 rocket 2.1 17:46:52 10° NW 17:50:23 31° NNE 17:50:36 30° NE
Okean O Rocket 1.6 17:46:30 10° SSE 17:50:51 56° ENE 17:55:14 10° N
Cosmos 2208 Rocket 4.2 17:53:53 10° S 17:59:07 54° ESE 18:01:39 29° NE
CZ-4 R/B 4.3 17:56:05 10° SSE 18:00:10 65° ENE 18:04:17 10° N
Cosmos 1666 Rocket 3.5 17:56:51 10° N 18:01:19 87° WSW 18:05:42 10° S
Meteor 1-10 Rocket 4.5 17:56:42 10° SSE 18:02:11 46° E 18:04:53 27° NE
H-2A R/B 2.4 17:57:48 10° S 18:02:57 67° WSW 18:08:00 10° NNW
Meteor 1-11 Rocket 4.1 17:58:07 10° N 18:03:22 39° ENE 18:05:46 27° ESE
Cosmos 1470 Rocket 3.7 18:00:12 10° N 18:04:32 49° ENE 18:08:52 10° SSE
Cosmos 2150 Rocket 4.3 17:59:41 10° N 18:04:34 40° ENE 18:04:48 40° ENE
USA 267 3.8 18:01:04 22° NE 18:05:10 50° NNW 18:11:25 10° W
Cosmos 1328 Rocket 3.4 18:00:58 10° S 18:05:23 69° E 18:07:30 30° NNE
Cosmos 1655 Rocket 4.1 18:00:24 10° N 18:06:41 54° ENE 18:12:53 10° SSE
USA 305 4.0 18:05:06 10° NW 18:08:46 28° N 18:08:46 28° N
Cosmos 2360 Rocket 3.8 18:04:35 10° N 18:07:10 19° NNE 18:07:10 19° NNE
Landsat 5 3.3 18:08:42 56° ENE 18:09:18 65° ESE 18:13:14 10° S
Cosmos 2180 Rocket 4.4 18:07:47 10° S 18:14:07 80° E 18:20:26 10° N
Cosmos 841 Rocket 4.3 18:09:38 10° SW 18:14:38 49° WNW 18:18:54 14° N
SKYMED 2 3.6 18:12:00 21° N 18:14:53 78° WNW 18:19:13 10° SSW
Feng Yun 1-1 Rocket 4.3 18:10:21 10° SSE 18:16:12 66° ENE 18:22:02 10° N
Cosmos 1666 3.1 18:12:46 10° NNW 18:16:28 60° W 18:20:06 10° S
Meteor 2-8 Rocket 4.3 18:11:34 10° S 18:17:42 82° E 18:23:54 10° N
ATLAS CENTAUR R/B 3.3 18:11:11 10° WSW 18:19:07 42° NW 18:20:43 30° N
Cosmos 1125 Rocket 3.7 18:17:36 10° NNW 18:22:14 50° NE 18:22:14 50° NE
Cosmos 2322 Rocket 2.9 18:23:45 10° NNW 18:27:49 36° NNE 18:27:49 36° NNE
SL-08 RB Rocket 3.8 18:29:28 10° S 18:34:07 78° WSW 18:38:44 10° NNW
Cosmos 1980 Rocket 3.4 18:29:41 10° NW 18:34:59 42° WSW 18:40:13 10° S
Cosmos 1812 4.5 18:32:00 10° SW 18:35:27 31° WNW 18:37:47 17° NNW
ATLAS 2AS CENTAUR R/B 4.3 18:31:17 10° NW 18:36:27 19° N 18:37:27 19° NNE
USA 234 4.4 18:32:54 10° SSE 18:38:58 40° SW 18:45:05 10° WNW
ISS -2.0 18:35:47 10° WNW 18:37:58 32° W 18:37:58 32° W
CZ-4C R/B 3.3 18:38:45 10° NW 18:46:04 67° WSW 18:54:30 10° SSE
SL-16 R/B 2.3 18:41:16 10° NNW 18:46:11 62° NNE 18:46:11 62° NNE
Cosmos 2082 Rocket 3.5 18:44:16 10° WSW 18:49:31 37° NW 18:52:35 22° N
Cosmos 44 Rocket 3.7 18:49:00 10° NW 18:53:09 60° WNW 18:53:09 60° WNW
Cosmos 2333 Rocket 4.3 18:53:22 10° N 18:54:27 14° N 18:54:27 14° N
CZ-2C R/B 4.2 19:09:32 10° SSW 19:09:35 10° SSW 19:09:35 10° SSW
GEOS 3 Rocket 4.4 19:19:06 48° WNW 19:19:06 48° WNW 19:23:02 10° NW
Cosmos 1818 4.4 19:14:36 10° NW 19:19:32 46° WSW 19:19:32 46° WSW
Okean O Rocket 4.5 19:24:49 10° SW 19:27:33 16° W 19:30:17 10° NW
Lacrosse 5 rocket 4.2 19:25:43 10° WNW 19:26:13 13° WNW 19:26:13 13° WNW
BREEZE-M DEB (TANK) 4.3 19:24:31 10° SW 19:44:57 81° W 19:44:57 81° W
Cosmos 2360 Rocket 4.5 19:47:49 10° NNW 19:48:57 16° NNW 19:48:57 16° NNW
